Location: Cisewo
(53.3833°N, 14.9000°E)
Time: 12:19:56
(UTC+00:00)

DMSP B5D2-2 - Pass Details

Date: 18 April 2021
Orbit: 790 x 805 km, 98.3° (Epoch: 14 May)

Event Time Altitude Azimuth Distance (km) Brightness Sun altitude
Rises 18:48:03 0° 14° (NNE) 3,309 7.5 -6.4°
Reaches altitude 10° 18:50:23 10° 13° (NNE) 2,377 6.8 -6.7°
Maximum altitude 18:55:38 80° 288° (WNW) 815 4.3 -7.4°
Drops below altitude 10° 19:00:52 10° 202° (SSW) 2,370 6.5 -8.1°
Sets 19:03:12 0° 201° (SSW) 3,298 7.2 -8.4°
